This is the latest recevied weather packets stored in our database for station/object KO4WIL-13. If no packets are shown the sender has not sent any weather packets the latest 1 day(s).
| Time | Temp. | Humidity | Pressure | Rain* | Wind** | Luminosity | Snow |
|---|---|---|---|---|---|---|---|
| 1778016635 | 21.67° C | 52% | 963.8 hPa | 0 mm | 0 m/s | - | - |
| 1778016333 | 21.67° C | 51% | 963.8 hPa | 0 mm | 0.45 m/s, 252° | - | - |
| 1778016031 | 21.67° C | 52% | 963.7 hPa | 0 mm | 0.45 m/s, 252° | - | - |
| 1778015729 | 21.67° C | 50% | 963.6 hPa | 0 mm | 0.45 m/s, 255° | - | - |
| 1778015427 | 21.67° C | 51% | 963.6 hPa | 0 mm | 0.45 m/s, 221° | - | - |
| 1778015125 | 21.67° C | 50% | 963.7 hPa | 0 mm | 0.45 m/s, 228° | - | - |
| 1778014823 | 21.67° C | 51% | 963.8 hPa | 0 mm | 0.45 m/s, 224° | - | - |
| 1778014521 | 21.67° C | 51% | 963.9 hPa | 0 mm | 0.45 m/s, 213° | - | - |
| 1778014219 | 21.67° C | 51% | 963.9 hPa | 0 mm | 0.45 m/s, 257° | - | - |
| 1778013917 | 21.67° C | 51% | 963.9 hPa | 0 mm | 0.89 m/s, 242° | - | - |
| 1778013615 | 21.67° C | 51% | 964 hPa | 0 mm | 0.45 m/s, 248° | - | - |
| 1778013313 | 21.67° C | 53% | 964.1 hPa | 0 mm | 0.45 m/s, 259° | - | - |
| 1778013011 | 21.67° C | 53% | 964.2 hPa | 0 mm | 0.45 m/s, 222° | - | - |
| 1778012708 | 21.67° C | 53% | 964.3 hPa | 0 mm | 0.45 m/s, 248° | - | - |
| 1778012407 | 21.67° C | 52% | 964.3 hPa | 0 mm | 0.89 m/s, 231° | - | - |
| 1778012104 | 21.67° C | 51% | 964.1 hPa | 0 mm | 1.34 m/s, 254° | - | - |
| 1778011802 | 21.67° C | 51% | 964.4 hPa | 0 mm | 0.89 m/s, 244° | - | - |
| 1778011500 | 21.67° C | 52% | 964.5 hPa | 0 mm | 0.45 m/s, 209° | - | - |
| 1778011198 | 21.67° C | 52% | 964.5 hPa | 0 mm | 0.45 m/s, 241° | - | - |
| 1778010896 | 21.67° C | 50% | 964.4 hPa | 0 mm | 0.89 m/s, 217° | - | - |
| 1778010595 | 21.67° C | 51% | 964.5 hPa | 0 mm | 0.89 m/s, 258° | - | - |
| 1778010288 | 21.67° C | 51% | 964.6 hPa | 0 mm | 0.45 m/s, 226° | - | - |
| 1778009987 | 22.22° C | 51% | 964.7 hPa | 0 mm | 0.45 m/s, 222° | - | - |
| 1778009685 | 22.22° C | 51% | 964.9 hPa | 0 mm | 0.45 m/s, 204° | - | - |
| 1778009383 | 22.22° C | 49% | 964.9 hPa | 0 mm | 0.89 m/s, 234° | - | - |
* Rain latest hour (hover to see other rain measurements)
** Current wind speed in m/s (hover to see current wind gust speed)